This demonstration page uses our WeatherBlox Daily Observations layout. Learn more.

Hourly Observations for June 11, 2019

Temp ( °F °C ) Dew Point ( °F °C ) Humidity (%) Winds ( mph kmh ) Pressure ( in mb ) Visibility ( mi km ) Precip ( " mm )
12:15 am 00:15 Clear 60 15.5 48 9.1 66 66 S 12 19 30.15 1021 10 16.09344 0 0
12:35 am 00:35 Clear 60 15.7 47 8.6 63 63 S 14 22 30.15 1021 10 16.09344 0 0
12:55 am 00:55 Clear 60 15.6 48 8.7 64 64 S 10 17 30.12 1020 10 16.09344 0 0
1:15 am 01:15 Clear 60 15.5 48 9 65 65 S 12 19 30.12 1020 10 16.09344 0 0
1:35 am 01:35 Clear 60 15.7 48 8.7 63 63 S 14 22 30.12 1020 10 16.09344 0 0
1:55 am 01:55 Clear 59 15.2 47 8.6 65 65 S 12 19 30.09 1019 10 16.09344 0 0
2:15 am 02:15 Clear 59 15.2 47 8.5 65 65 S 14 22 30.09 1019 10 16.09344 0 0
2:35 am 02:35 Clear 60 15.5 47 8.2 62 62 S 14 22 30.09 1019 10 16.09344 0 0
2:55 am 02:55 Clear 60 15.7 46 7.9 60 60 S 14 22 30.09 1019 10 16.09344 0 0
3:15 am 03:15 Clear 60 15.7 47 8.1 61 61 S 13 20 30.09 1019 10 16.09344 0 0
3:35 am 03:35 Clear 60 15.7 47 8.2 61 61 S 12 19 30.09 1019 10 16.09344 0 0
3:55 am 03:55 Clear 60 15.7 47 8.2 61 61 S 10 17 30.09 1019 10 16.09344 0 0
4:15 am 04:15 Clear 60 15.7 47 8.2 61 61 S 10 17 30.09 1019 10 16.09344 0 0
4:35 am 04:35 Clear 60 15.5 47 8.2 62 62 S 10 17 30.09 1019 10 16.09344 0 0
4:55 am 04:55 Clear 59 15 47 8.5 65 65 S 7 11 30.09 1019 10 16.09344 0 0
5:15 am 05:15 Clear 59 15 47 8.5 65 65 S 7 11 30.09 1019 10 16.09344 0 0
5:35 am 05:35 Clear 57 14.1 48 8.7 70 70 SSE 5 7 30.09 1019 10 16.09344 0 0
5:55 am 05:55 Clear 57 13.7 48 8.8 72 72 SSE 3 6 30.12 1020 10 16.09344 0 0
6:15 am 06:15 Sunny 57 14 48 9 72 72 SSE 6 9 30.09 1019 10 16.09344 0 0
6:35 am 06:35 Sunny 57 13.8 49 9.3 74 74 SE 5 7 30.09 1019 10 16.09344 0 0
6:55 am 06:55 Sunny 56 13.2 49 9.7 80 80 SE 5 7 30.12 1020 10 16.09344 0 0
7:15 am 07:15 Sunny 56 13.3 50 10 81 81 SE 7 11 30.12 1020 10 16.09344 0 0
7:35 am 07:35 Sunny 58 14.4 50 9.8 74 74 SSE 5 7 30.09 1019 10 16.09344 0 0
7:55 am 07:55 Mostly Cloudy 59 15.1 49 9.3 69 69 S 10 17 30.09 1019 10 16.09344 0 0
8:15 am 08:15 Partly Cloudy 59 15.2 49 9.4 69 69 S 10 17 30.09 1019 10 16.09344 0 0
8:35 am 08:35 Sunny 62 16.5 49 9.2 62 62 S 14 22 30.09 1019 10 16.09344 0 0
8:55 am 08:55 Sunny 64 17.5 48 8.9 57 57 S 15 24 30.06 1018 10 16.09344 0 0
9:15 am 09:15 Sunny 65 18.2 48 9.1 56 56 S 16 26 30.06 1018 10 16.09344 0 0
9:35 am 09:35 Sunny 64 17.7 48 9 57 57 S 14 22 30.03 1017 10 16.09344 0 0
9:55 am 09:55 Sunny 64 17.7 48 8.9 57 57 S 14 22 30.03 1017 10 16.09344 0 0
10:15 am 10:15 Partly Cloudy 64 17.8 47 8.6 55 55 S 15 24 30.03 1017 10 16.09344 0 0
10:35 am 10:35 Partly Cloudy 66 18.7 49 9.2 54 54 S 15 24 30.03 1017 10 16.09344 0 0
10:55 am 10:55 Sunny 66 19.1 49 9.3 53 53 S 17 28 30.03 1017 10 16.09344 0 0
11:15 am 11:15 Partly Cloudy 66 19 49 9.5 54 54 S 15 24 30 1016 10 16.09344 0 0
11:35 am 11:35 Mostly Cloudy 67 19.5 49 9.6 53 53 SSW 15 24 30 1016 10 16.09344 0 0
11:55 am 11:55 Cloudy 67 19.5 49 9.5 53 53 SW 12 19 30.03 1017 10 16.09344 0 0
12:15 pm 12:15 Cloudy 68 19.9 49 9.4 51 51 S 10 17 30.03 1017 10 16.09344 0 0
12:35 pm 12:35 Mostly Cloudy 69 20.5 49 9.2 48 48 SSW 14 22 29.97 1015 10 16.09344 0 0
12:55 pm 12:55 Cloudy 69 20.6 50 10 51 51 SW 9 15 29.97 1015 10 16.09344 0 0
1:15 pm 13:15 Partly Cloudy with Nearby Thunderstorms 70 21 50 9.8 49 49 SW 8 13 29.97 1015 10 16.09344 0 0
1:35 pm 13:35 Partly Cloudy 71 21.5 51 10.3 49 49 WSW 7 11 29.97 1015 10 16.09344 0 0
1:55 pm 13:55 Sunny 71 21.5 51 10.6 50 50 SW 9 15 29.97 1015 10 16.09344 0 0
2:15 pm 14:15 Sunny 72 22 51 10.7 49 49 WSW 8 13 29.97 1015 10 16.09344 0 0
2:35 pm 14:35 Sunny 73 22.5 51 10.8 48 48 Calm 29.97 1015 10 16.09344 0 0
2:55 pm 14:55 Sunny with Nearby Thunderstorms 73 22.7 51 10.7 47 47 W 10 17 29.97 1015 10 16.09344 0 0
3:15 pm 15:15 Sunny with Nearby Thunderstorms 72 22.4 51 10.7 48 48 NW 9 15 29.94 1014 10 16.09344 0 0
3:35 pm 15:35 Sunny with Nearby Thunderstorms 73 22.9 52 11.2 48 48 NW 10 17 29.94 1014 10 16.09344 0 0
3:55 pm 15:55 Sunny 73 22.5 50 9.9 45 45 Calm 29.94 1014 10 16.09344 0 0
4:15 pm 16:15 Sunny 74 23.2 50 10.2 44 44 N 13 20 29.94 1014 10 16.09344 0 0
4:35 pm 16:35 Sunny 73 22.7 50 9.8 44 44 NE 13 20 29.94 1014 10 16.09344 0 0
4:55 pm 16:55 Partly Cloudy 73 22.5 51 10.5 47 47 NNE 9 15 29.94 1014 10 16.09344 0 0
5:15 pm 17:15 Partly Cloudy 73 22.8 52 11.3 48 48 NNE 3 6 29.94 1014 10 16.09344 0 0
5:35 pm 17:35 Sunny 73 22.6 52 11.3 49 49 NNE 3 6 29.94 1014 10 16.09344 0 0
5:55 pm 17:55 Sunny 74 23.1 52 11.1 47 47 Calm 29.94 1014 10 16.09344 0 0
6:15 pm 18:15 Sunny 73 22.6 51 10.7 47 47 N 9 15 29.94 1014 10 16.09344 0 0
6:35 pm 18:35 Sunny 72 22.2 49 9.6 45 45 N 5 7 29.94 1014 10 16.09344 0 0
6:55 pm 18:55 Sunny 72 22.3 49 9.2 43 43 Calm 29.94 1014 10 16.09344 0 0
7:15 pm 19:15 Partly Cloudy 72 22 49 9.5 45 45 N 8 13 29.94 1014 10 16.09344 0 0
7:35 pm 19:35 Cloudy 71 21.8 48 9.1 44 44 N 13 20 29.94 1014 10 16.09344 0 0
7:55 pm 19:55 Mostly Cloudy 70 21 49 9.5 48 48 N 10 17 29.94 1014 10 16.09344 0 0
8:15 pm 20:15 Mostly Cloudy 69 20.5 48 9.1 48 48 N 8 13 29.97 1015 10 16.09344 0 0
8:35 pm 20:35 Cloudy with Heavy Rain 62 16.6 55 12.6 77 77 WNW 28 44 30.09 1019 7 11.265408 0.05 1.27
8:55 pm 20:55 Cloudy with Rain 58 14.3 54 12.1 87 87 SSW 13 20 30.03 1017 7 11.265408 0.14 3.556
9:15 pm 21:15 Mostly Cloudy 58 14.6 54 12 85 85 Calm 30.03 1017 10 16.09344 0 0
9:35 pm 21:35 Clear 59 14.9 54 12.1 83 83 NNW 3 6 30.03 1017 10 16.09344 0 0
9:55 pm 21:55 Clear 59 14.9 54 12.3 85 85 NW 8 13 30.03 1017 10 16.09344 0 0
10:15 pm 22:15 Clear 59 15 56 13.5 91 91 NNW 7 11 30.06 1018 10 16.09344 0 0
10:35 pm 22:35 Clear 59 15 56 13.6 91 91 NW 8 13 30.06 1018 10 16.09344 0 0
10:55 pm 22:55 Clear 58 14.5 56 13.2 92 92 NW 7 11 30.06 1018 10 16.09344 0 0
11:15 pm 23:15 Clear 58 14.5 55 12.5 88 88 NW 7 11 30.06 1018 10 16.09344 0 0
11:35 pm 23:35 Clear 58 14.2 54 12.1 87 87 NW 8 13 30.06 1018 10 16.09344 0 0
11:55 pm 23:55 Clear 56 13.6 54 12.2 91 91 NW 8 13 30.06 1018 10 16.09344 0 0

Powered by AerisWeather